• In Lithuania
  • List of Countries
  • For 7 days
  • Water Temperature
  • Satellite Maps
  • Weather Map
  • Weather Widgets
  • user-avatar
    Login

    Hourly Weather Kanye

    Today, 16 January, Tuesday

    Time Temperature Precipitation Wind Pressure Humidity
    00:00 +27°C° 0.1 mm 5 mps 651 mmHg 43%
    01:00 +27°C° 0.1 mm 5 mps 651 mmHg 45%
    02:00 +26°C° 0 mm 6 mps 652 mmHg 49%
    03:00 +24°C° 0.4 mm 7 mps 652 mmHg 54%
    04:00 +23°C° 0.4 mm 7 mps 652 mmHg 58%
    05:00 +22°C° 0.4 mm 8 mps 652 mmHg 63%
    06:00 +23°C° 0.5 mm 8 mps 653 mmHg 58%
    07:00 +23°C° 0.5 mm 7 mps 653 mmHg 54%
    08:00 +23°C° 0 mm 7 mps 654 mmHg 51%
    09:00 +24°C° 0 mm 7 mps 654 mmHg 47%
    10:00 +26°C° 0 mm 7 mps 654 mmHg 42%
    11:00 +27°C° 0 mm 6 mps 654 mmHg 38%
    12:00 +29°C° 0 mm 6 mps 654 mmHg 32%
    13:00 +32°C° 0 mm 5 mps 654 mmHg 27%
    14:00 +35°C° 0 mm 5 mps 654 mmHg 22%
    15:00 +35°C° 0 mm 5 mps 653 mmHg 20%
    16:00 +35°C° 0 mm 4 mps 653 mmHg 19%
    17:00 +36°C° 0 mm 4 mps 653 mmHg 17%
    18:00 +34°C° 0 mm 3 mps 652 mmHg 19%
    19:00 +31°C° 0 mm 3 mps 652 mmHg 21%
    20:00 +29°C° 0 mm 2 mps 651 mmHg 24%
    21:00 +28°C° 0 mm 3 mps 651 mmHg 25%
    22:00 +27°C° 0 mm 3 mps 652 mmHg 27%
    23:00 +26°C° 0 mm 3 mps 652 mmHg 28%

    Tomorrow, 17 January, Wednesday

    Time Temperature Precipitation Wind Pressure Humidity
    00:00 +26°C° 0 mm 4 mps 652 mmHg 32%
    01:00 +25°C° 0 mm 4 mps 652 mmHg 35%
    02:00 +23°C° 0 mm 5 mps 652 mmHg 39%
    03:00 +22°C° 0 mm 5 mps 652 mmHg 45%
    04:00 +22°C° 0 mm 5 mps 652 mmHg 51%
    05:00 +21°C° 0 mm 6 mps 652 mmHg 58%
    06:00 +21°C° 0 mm 6 mps 653 mmHg 57%
    07:00 +22°C° 0 mm 6 mps 653 mmHg 56%
    08:00 +23°C° 0 mm 6 mps 654 mmHg 55%
    09:00 +26°C° 0 mm 6 mps 654 mmHg 47%
    10:00 +28°C° 0 mm 6 mps 654 mmHg 40%
    11:00 +30°C° 0 mm 6 mps 654 mmHg 33%
    12:00 +33°C° 0 mm 5 mps 654 mmHg 29%
    13:00 +34°C° 0 mm 5 mps 654 mmHg 25%
    14:00 +35°C° 0 mm 4 mps 653 mmHg 22%
    15:00 +36°C° 0 mm 4 mps 653 mmHg 21%
    16:00 +36°C° 0 mm 3 mps 652 mmHg 19%
    17:00 +36°C° 0 mm 3 mps 652 mmHg 18%
    18:00 +34°C° 0 mm 2 mps 651 mmHg 20%
    19:00 +32°C° 0 mm 2 mps 651 mmHg 22%
    20:00 +30°C° 0 mm 2 mps 650 mmHg 24%
    21:00 +29°C° 0 mm 2 mps 651 mmHg 26%
    22:00 +28°C° 0 mm 2 mps 651 mmHg 27%
    23:00 +27°C° 0 mm 2 mps 651 mmHg 29%

    Day after tomorrow, 18 January, Thursday

    Time Temperature Precipitation Wind Pressure Humidity
    00:00 +26°C° 0 mm 2 mps 651 mmHg 29%
    01:00 +26°C° 0 mm 2 mps 651 mmHg 29%
    02:00 +25°C° 0 mm 2 mps 651 mmHg 30%
    03:00 +25°C° 0 mm 3 mps 651 mmHg 32%
    04:00 +24°C° 0 mm 3 mps 651 mmHg 35%
    05:00 +24°C° 0 mm 3 mps 651 mmHg 38%
    06:00 +25°C° 0 mm 4 mps 652 mmHg 40%
    07:00 +25°C° 0 mm 5 mps 653 mmHg 43%
    08:00 +26°C° 0 mm 6 mps 653 mmHg 45%
    09:00 +28°C° 0 mm 5 mps 654 mmHg 40%
    10:00 +30°C° 0 mm 5 mps 654 mmHg 35%
    11:00 +33°C° 0 mm 4 mps 654 mmHg 30%
    12:00 +34°C° 0 mm 3 mps 654 mmHg 27%
    13:00 +36°C° 0 mm 2 mps 653 mmHg 24%
    14:00 +36°C° 0 mm 1 mps 653 mmHg 21%
    15:00 +36°C° 0 mm 1 mps 652 mmHg 21%
    16:00 +35°C° 0 mm 1 mps 651 mmHg 21%
    17:00 +35°C° 0 mm 1 mps 651 mmHg 21%
    18:00 +33°C° 0 mm 1 mps 651 mmHg 23%
    19:00 +32°C° 0 mm 2 mps 650 mmHg 25%
    20:00 +31°C° 0 mm 2 mps 650 mmHg 27%
    21:00 +30°C° 0.1 mm 2 mps 650 mmHg 30%
    22:00 +29°C° 0.1 mm 2 mps 651 mmHg 33%
    23:00 +28°C° 0.1 mm 2 mps 651 mmHg 36%

    19 January, Friday

    Time Temperature Precipitation Wind Pressure Humidity
    00:00 +27°C° 0.7 mm 3 mps 651 mmHg 41%
    01:00 +25°C° 0.7 mm 3 mps 651 mmHg 46%
    02:00 +24°C° 0.7 mm 3 mps 650 mmHg 51%
    03:00 +23°C° 0.1 mm 4 mps 651 mmHg 51%
    04:00 +22°C° 0.1 mm 5 mps 651 mmHg 51%
    05:00 +21°C° 0.1 mm 5 mps 651 mmHg 52%
    06:00 +22°C° 0 mm 5 mps 651 mmHg 48%
    07:00 +23°C° 0 mm 6 mps 652 mmHg 44%
    08:00 +24°C° 0 mm 6 mps 652 mmHg 40%
    09:00 +26°C° 0.1 mm 5 mps 653 mmHg 36%
    10:00 +28°C° 0.1 mm 5 mps 653 mmHg 31%
    11:00 +30°C° 0.1 mm 4 mps 653 mmHg 26%
    12:00 +31°C° 0 mm 3 mps 652 mmHg 24%
    13:00 +32°C° 0 mm 2 mps 652 mmHg 23%
    14:00 +33°C° 0 mm 1 mps 651 mmHg 22%
    15:00 +34°C° 0 mm 2 mps 651 mmHg 21%
    16:00 +35°C° 0 mm 2 mps 650 mmHg 21%
    17:00 +35°C° 0 mm 2 mps 650 mmHg 20%
    18:00 +32°C° 0 mm 2 mps 650 mmHg 23%
    19:00 +31°C° 0 mm 2 mps 649 mmHg 26%
    20:00 +29°C° 0 mm 1 mps 649 mmHg 29%
    21:00 +28°C° 0 mm 1 mps 649 mmHg 30%
    22:00 +28°C° 0 mm 1 mps 649 mmHg 31%
    23:00 +25°C° 0 mm 0 mps 649 mmHg 33%

    20 January, Saturday

    Time Temperature Precipitation Wind Pressure Humidity
    00:00 +27°C° 0.1 mm 1 mps 649 mmHg 35%
    01:00 +26°C° 0.1 mm 1 mps 649 mmHg 37%
    02:00 +26°C° 0.1 mm 1 mps 648 mmHg 40%
    03:00 +25°C° 0.1 mm 1 mps 649 mmHg 41%
    04:00 +24°C° 0.1 mm 2 mps 649 mmHg 43%
    05:00 +24°C° 0.1 mm 2 mps 649 mmHg 45%
    06:00 +25°C° 0.1 mm 3 mps 650 mmHg 40%
    07:00 +26°C° 0.1 mm 4 mps 651 mmHg 36%
    08:00 +27°C° 0.1 mm 6 mps 652 mmHg 32%
    09:00 +29°C° 0.1 mm 5 mps 652 mmHg 29%
    10:00 +32°C° 0.1 mm 5 mps 652 mmHg 25%
    11:00 +34°C° 0.1 mm 5 mps 652 mmHg 22%
    12:00 +35°C° 0 mm 4 mps 651 mmHg 20%
    13:00 +36°C° 0 mm 3 mps 651 mmHg 19%
    14:00 +37°C° 0 mm 2 mps 650 mmHg 17%
    15:00 +37°C° 0 mm 2 mps 650 mmHg 17%
    16:00 +37°C° 0 mm 2 mps 649 mmHg 17%
    17:00 +35°C° 0 mm 1 mps 649 mmHg 17%
    18:00 +34°C° 0 mm 1 mps 649 mmHg 19%
    19:00 +32°C° 0 mm 1 mps 649 mmHg 21%
    20:00 +30°C° 0 mm 2 mps 649 mmHg 24%
    21:00 +29°C° 0 mm 3 mps 649 mmHg 27%
    22:00 +29°C° 0 mm 4 mps 650 mmHg 31%
    23:00 +28°C° 0 mm 5 mps 650 mmHg 35%

    21 January, Sunday

    Time Temperature Precipitation Wind Pressure Humidity
    00:00 +27°C° 0.1 mm 5 mps 650 mmHg 38%
    01:00 +26°C° 0.1 mm 5 mps 649 mmHg 42%
    02:00 +24°C° 0.1 mm 6 mps 649 mmHg 45%
    03:00 +25°C° 0 mm 5 mps 649 mmHg 46%
    04:00 +25°C° 0 mm 5 mps 649 mmHg 47%
    05:00 +23°C° 0 mm 5 mps 649 mmHg 48%
    06:00 +23°C° 0 mm 6 mps 650 mmHg 48%
    07:00 +24°C° 0 mm 7 mps 650 mmHg 48%
    08:00 +24°C° 0 mm 8 mps 651 mmHg 48%
    09:00 +26°C° 0.1 mm 8 mps 651 mmHg 44%
    10:00 +27°C° 0.1 mm 8 mps 651 mmHg 41%
    11:00 +28°C° 0.1 mm 8 mps 651 mmHg 37%
    12:00 +29°C° 0.1 mm 7 mps 650 mmHg 36%
    13:00 +29°C° 0.1 mm 7 mps 650 mmHg 35%
    14:00 +30°C° 0.1 mm 6 mps 650 mmHg 34%
    15:00 +32°C° 0 mm 5 mps 649 mmHg 31%
    16:00 +32°C° 0 mm 4 mps 649 mmHg 28%
    17:00 +33°C° 0 mm 3 mps 649 mmHg 25%
    18:00 +30°C° 0 mm 4 mps 649 mmHg 29%
    19:00 +29°C° 0 mm 4 mps 649 mmHg 33%
    20:00 +27°C° 0 mm 4 mps 649 mmHg 37%
    21:00 +26°C° 0 mm 3 mps 648 mmHg 39%
    22:00 +25°C° 0 mm 2 mps 648 mmHg 41%
    23:00 +25°C° 0 mm 2 mps 648 mmHg 43%
    Show more